Location: Nairn
(57.5833°N, 3.8667°W)
Time: 20:44:10
(UTC+00:00)

S-56A Canister/Altair - Pass Details

Date: 04 October 2022
Orbit: 638 x 2494 km, 38.9° (Epoch: 05 December)

Event Time Altitude Azimuth Distance (km) Brightness Sun altitude
Exits shadow 05:01:30 11° 234° (SW) 3,376 10.2 -12.0°
Maximum altitude 05:05:24 15° 205° (SSW) 2,737 10.0 -11.5°
Drops below altitude 10° 05:09:02 10° 172° (S) 2,799 10.4 -11.0°
Sets 05:12:31 0° 149° (SSE) 3,466 11.2 -10.6°
